Year,Month,Day,Hour,Minute,Value (Times are PST for windspeed in km/hr)
2011,03,03,00,00,0.10
2011,03,03,00,01,0.00
2011,03,03,00,02,0.00
2011,03,03,00,03,0.00
2011,03,03,00,04,0.00
2011,03,03,00,05,0.10
2011,03,03,00,06,0.00
2011,03,03,00,07,0.00
2011,03,03,00,08,0.00
2011,03,03,00,09,0.00
2011,03,03,00,10,0.00
2011,03,03,00,11,0.50
2011,03,03,00,12,2.10
2011,03,03,00,13,4.70
2011,03,03,00,14,2.80
2011,03,03,00,15,2.80
2011,03,03,00,16,2.90
2011,03,03,00,17,2.50
2011,03,03,00,18,2.70
2011,03,03,00,19,0.40
2011,03,03,00,20,0.00
2011,03,03,00,21,0.10
2011,03,03,00,22,0.10
2011,03,03,00,23,0.10
2011,03,03,00,24,0.00
2011,03,03,00,25,0.20
2011,03,03,00,26,0.40
2011,03,03,00,27,0.80
2011,03,03,00,28,1.40
2011,03,03,00,29,0.00
2011,03,03,00,30,0.00
2011,03,03,00,31,0.00
2011,03,03,00,32,0.30
2011,03,03,00,33,1.70
2011,03,03,00,34,0.20
2011,03,03,00,35,0.30
2011,03,03,00,36,0.10
2011,03,03,00,37,0.70
2011,03,03,00,38,0.30
2011,03,03,00,39,1.90
2011,03,03,00,40,2.60
2011,03,03,00,41,3.00
2011,03,03,00,42,2.80
2011,03,03,00,43,2.00
2011,03,03,00,44,1.80
2011,03,03,00,45,2.80
2011,03,03,00,46,2.30
2011,03,03,00,47,0.50
2011,03,03,00,48,0.00
2011,03,03,00,49,0.10
2011,03,03,00,50,0.00
2011,03,03,00,51,0.00
2011,03,03,00,52,0.00
2011,03,03,00,53,0.00
2011,03,03,00,54,0.00
2011,03,03,00,55,0.00
2011,03,03,00,56,1.30
2011,03,03,00,57,2.20
2011,03,03,00,58,0.20
2011,03,03,00,59,1.20
2011,03,03,01,00,0.00
2011,03,03,01,01,0.10
2011,03,03,01,02,0.00
2011,03,03,01,03,0.10
2011,03,03,01,04,0.60
2011,03,03,01,05,0.20
2011,03,03,01,06,0.00
2011,03,03,01,07,0.00
2011,03,03,01,08,0.00
2011,03,03,01,09,0.00
2011,03,03,01,10,0.00
2011,03,03,01,11,0.00
2011,03,03,01,12,0.10
2011,03,03,01,13,0.10
2011,03,03,01,14,0.00
2011,03,03,01,15,0.00
2011,03,03,01,16,0.00
2011,03,03,01,17,0.40
2011,03,03,01,18,0.50
2011,03,03,01,19,0.60
2011,03,03,01,20,4.10
2011,03,03,01,21,4.70
2011,03,03,01,22,4.70
2011,03,03,01,23,5.60
2011,03,03,01,24,5.40
2011,03,03,01,25,5.80
2011,03,03,01,26,5.00
2011,03,03,01,27,5.60
2011,03,03,01,28,5.10
2011,03,03,01,29,6.00
2011,03,03,01,30,4.70
2011,03,03,01,31,4.40
2011,03,03,01,32,4.80
2011,03,03,01,33,3.50
2011,03,03,01,34,2.60
2011,03,03,01,35,3.40
2011,03,03,01,36,5.30
2011,03,03,01,37,4.30
2011,03,03,01,38,4.90
2011,03,03,01,39,4.40
2011,03,03,01,40,4.90
2011,03,03,01,41,2.40
2011,03,03,01,42,3.10
2011,03,03,01,43,1.60
2011,03,03,01,44,0.60
2011,03,03,01,45,1.20
2011,03,03,01,46,3.30
2011,03,03,01,47,2.30
2011,03,03,01,48,3.10
2011,03,03,01,49,4.70
2011,03,03,01,50,4.70
2011,03,03,01,51,3.50
2011,03,03,01,52,2.40
2011,03,03,01,53,2.10
2011,03,03,01,54,1.40
2011,03,03,01,55,3.00
2011,03,03,01,56,3.00
2011,03,03,01,57,1.00
2011,03,03,01,58,1.20
2011,03,03,01,59,0.40
2011,03,03,02,00,0.10
2011,03,03,02,01,0.00
2011,03,03,02,02,0.20
2011,03,03,02,03,0.20
2011,03,03,02,04,0.60
2011,03,03,02,05,0.60
2011,03,03,02,06,0.30
2011,03,03,02,07,0.20
2011,03,03,02,08,0.50
2011,03,03,02,09,0.00
2011,03,03,02,10,0.00
2011,03,03,02,11,0.40
2011,03,03,02,12,1.00
2011,03,03,02,13,2.30
2011,03,03,02,14,1.20
2011,03,03,02,15,0.10
2011,03,03,02,16,0.00
2011,03,03,02,17,0.00
2011,03,03,02,18,0.00
2011,03,03,02,19,0.10
2011,03,03,02,20,0.00
2011,03,03,02,21,0.00
2011,03,03,02,22,0.00
2011,03,03,02,23,0.10
2011,03,03,02,24,0.00
2011,03,03,02,25,0.10
2011,03,03,02,26,1.50
2011,03,03,02,27,0.10
2011,03,03,02,28,1.40
2011,03,03,02,29,0.70
2011,03,03,02,30,0.00
2011,03,03,02,31,0.70
2011,03,03,02,32,1.30
2011,03,03,02,33,0.20
2011,03,03,02,34,0.00
2011,03,03,02,35,0.00
2011,03,03,02,36,0.00
2011,03,03,02,37,0.60
2011,03,03,02,38,2.30
2011,03,03,02,39,0.80
2011,03,03,02,40,3.80
2011,03,03,02,41,2.10
2011,03,03,02,42,1.00
2011,03,03,02,43,3.80
2011,03,03,02,44,2.50
2011,03,03,02,45,4.40
2011,03,03,02,46,4.00
2011,03,03,02,47,2.60
2011,03,03,02,48,1.40
2011,03,03,02,49,0.60
2011,03,03,02,50,3.00
2011,03,03,02,51,3.40
2011,03,03,02,52,2.90
2011,03,03,02,53,1.60
2011,03,03,02,54,0.70
2011,03,03,02,55,1.90
2011,03,03,02,56,2.50
2011,03,03,02,57,1.60
2011,03,03,02,58,1.90
2011,03,03,02,59,3.70
2011,03,03,03,00,3.30
2011,03,03,03,01,3.20
2011,03,03,03,02,3.10
2011,03,03,03,03,2.60
2011,03,03,03,04,3.40
2011,03,03,03,05,2.40
2011,03,03,03,06,1.80
2011,03,03,03,07,0.00
2011,03,03,03,08,0.00
2011,03,03,03,09,0.00
2011,03,03,03,10,1.40
2011,03,03,03,11,0.00
2011,03,03,03,12,0.00
2011,03,03,03,13,0.10
2011,03,03,03,14,0.00
2011,03,03,03,15,0.00
2011,03,03,03,16,0.00
2011,03,03,03,17,1.90
2011,03,03,03,18,1.50
2011,03,03,03,19,0.00
2011,03,03,03,20,0.10
2011,03,03,03,21,0.00
2011,03,03,03,22,1.20
2011,03,03,03,23,0.10
2011,03,03,03,24,0.10
2011,03,03,03,25,0.10
2011,03,03,03,26,1.20
2011,03,03,03,27,3.90
2011,03,03,03,28,3.70
2011,03,03,03,29,2.70
2011,03,03,03,30,1.60
2011,03,03,03,31,0.00
2011,03,03,03,32,0.10
2011,03,03,03,33,0.00
2011,03,03,03,34,0.00
2011,03,03,03,35,0.00
2011,03,03,03,36,0.00
2011,03,03,03,37,0.10
2011,03,03,03,38,1.30
2011,03,03,03,39,0.20
2011,03,03,03,40,0.00
2011,03,03,03,41,1.10
2011,03,03,03,42,0.20
2011,03,03,03,43,0.00
2011,03,03,03,44,0.00
2011,03,03,03,45,0.00
2011,03,03,03,46,0.00
2011,03,03,03,47,0.00
2011,03,03,03,48,0.00
2011,03,03,03,49,2.20
2011,03,03,03,50,2.40
2011,03,03,03,51,1.40
2011,03,03,03,52,0.10
2011,03,03,03,53,0.10
2011,03,03,03,54,0.10
2011,03,03,03,55,0.10
2011,03,03,03,56,0.10
2011,03,03,03,57,0.80
2011,03,03,03,58,2.50
2011,03,03,03,59,2.40
2011,03,03,04,00,2.10
2011,03,03,04,01,2.30
2011,03,03,04,02,1.80
2011,03,03,04,03,1.60
2011,03,03,04,04,2.00
2011,03,03,04,05,2.10
2011,03,03,04,06,1.80
2011,03,03,04,07,2.40
2011,03,03,04,08,1.90
2011,03,03,04,09,1.40
2011,03,03,04,10,0.30
2011,03,03,04,11,0.60
2011,03,03,04,12,0.00
2011,03,03,04,13,1.10
2011,03,03,04,14,1.20
2011,03,03,04,15,0.00
2011,03,03,04,16,0.10
2011,03,03,04,17,0.40
2011,03,03,04,18,0.20
2011,03,03,04,19,0.10
2011,03,03,04,20,0.10
2011,03,03,04,21,0.90
2011,03,03,04,22,1.10
2011,03,03,04,23,1.50
2011,03,03,04,24,2.10
2011,03,03,04,25,1.20
2011,03,03,04,26,0.10
2011,03,03,04,27,0.00
2011,03,03,04,28,0.00
2011,03,03,04,29,0.00
2011,03,03,04,30,0.00
2011,03,03,04,31,0.00
2011,03,03,04,32,0.00
2011,03,03,04,33,0.00
2011,03,03,04,34,0.00
2011,03,03,04,35,0.00
2011,03,03,04,36,0.10
2011,03,03,04,37,0.00
2011,03,03,04,38,0.00
2011,03,03,04,39,0.00
2011,03,03,04,40,0.00
2011,03,03,04,41,0.00
2011,03,03,04,42,0.00
2011,03,03,04,43,1.30
2011,03,03,04,44,1.20
2011,03,03,04,45,1.70
2011,03,03,04,46,0.40
2011,03,03,04,47,0.10
2011,03,03,04,48,0.10
2011,03,03,04,49,0.20
2011,03,03,04,50,2.60
2011,03,03,04,51,2.10
2011,03,03,04,52,3.50
2011,03,03,04,53,2.50
2011,03,03,04,54,2.70
2011,03,03,04,55,1.50
2011,03,03,04,56,1.10
2011,03,03,04,57,0.10
2011,03,03,04,58,0.20
2011,03,03,04,59,0.00
2011,03,03,05,00,0.30
2011,03,03,05,01,1.90
2011,03,03,05,02,1.10
2011,03,03,05,03,0.80
2011,03,03,05,04,3.50
2011,03,03,05,05,5.00
2011,03,03,05,06,3.70
2011,03,03,05,07,3.60
2011,03,03,05,08,3.40
2011,03,03,05,09,3.30
2011,03,03,05,10,3.90
2011,03,03,05,11,3.60
2011,03,03,05,12,1.30
2011,03,03,05,13,2.50
2011,03,03,05,14,3.10
2011,03,03,05,15,8.00
2011,03,03,05,16,4.10
2011,03,03,05,17,3.80
2011,03,03,05,18,4.50
2011,03,03,05,19,3.60
2011,03,03,05,20,5.20
2011,03,03,05,21,4.70
2011,03,03,05,22,2.30
2011,03,03,05,23,0.20
2011,03,03,05,24,0.50
2011,03,03,05,25,1.80
2011,03,03,05,26,3.10
2011,03,03,05,27,5.80
2011,03,03,05,28,3.90
2011,03,03,05,29,3.10
2011,03,03,05,30,2.60
2011,03,03,05,31,2.10
2011,03,03,05,32,3.30
2011,03,03,05,33,3.80
2011,03,03,05,34,1.70
2011,03,03,05,35,2.70
2011,03,03,05,36,4.90
2011,03,03,05,37,3.20
2011,03,03,05,38,2.30
2011,03,03,05,39,0.50
2011,03,03,05,40,0.70
2011,03,03,05,41,1.00
2011,03,03,05,42,3.40
2011,03,03,05,43,3.40
2011,03,03,05,44,3.80
2011,03,03,05,45,1.80
2011,03,03,05,46,1.40
2011,03,03,05,47,2.60
2011,03,03,05,48,1.80
2011,03,03,05,49,2.30
2011,03,03,05,50,2.20
2011,03,03,05,51,2.80
2011,03,03,05,52,2.80
2011,03,03,05,53,2.40
2011,03,03,05,54,1.40
2011,03,03,05,55,1.90
2011,03,03,05,56,1.50
2011,03,03,05,57,1.40
2011,03,03,05,58,3.00
2011,03,03,05,59,1.90
2011,03,03,06,00,1.40
2011,03,03,06,01,1.10
2011,03,03,06,02,0.50
2011,03,03,06,03,2.50
2011,03,03,06,04,3.60
2011,03,03,06,05,2.40
2011,03,03,06,06,3.70
2011,03,03,06,07,3.40
2011,03,03,06,08,2.10
2011,03,03,06,09,1.30
2011,03,03,06,10,1.90
2011,03,03,06,11,2.70
2011,03,03,06,12,2.40
2011,03,03,06,13,0.60
2011,03,03,06,14,1.10
2011,03,03,06,15,1.20
2011,03,03,06,16,2.20
2011,03,03,06,17,1.50
2011,03,03,06,18,2.30
2011,03,03,06,19,2.10
2011,03,03,06,20,0.90
2011,03,03,06,21,1.30
2011,03,03,06,22,3.10
2011,03,03,06,23,3.70
2011,03,03,06,24,4.20
2011,03,03,06,25,3.30
2011,03,03,06,26,3.60
2011,03,03,06,27,2.70
2011,03,03,06,28,1.90
2011,03,03,06,29,0.50
2011,03,03,06,30,0.50
2011,03,03,06,31,2.50
2011,03,03,06,32,4.10
2011,03,03,06,33,2.70
2011,03,03,06,34,1.20
2011,03,03,06,35,2.90
2011,03,03,06,36,4.20
2011,03,03,06,37,1.90
2011,03,03,06,38,2.40
2011,03,03,06,39,1.20
2011,03,03,06,40,2.20
2011,03,03,06,41,3.10
2011,03,03,06,42,2.10
2011,03,03,06,43,2.70
2011,03,03,06,44,4.10
2011,03,03,06,45,4.80
2011,03,03,06,46,3.10
2011,03,03,06,47,2.60
2011,03,03,06,48,3.00
2011,03,03,06,49,2.40
2011,03,03,06,50,1.40
2011,03,03,06,51,3.90
2011,03,03,06,52,3.70
2011,03,03,06,53,2.70
2011,03,03,06,54,2.70
2011,03,03,06,55,2.30
2011,03,03,06,56,0.90
2011,03,03,06,57,1.40
2011,03,03,06,58,1.90
2011,03,03,06,59,3.30
2011,03,03,07,00,1.50
2011,03,03,07,01,0.10
2011,03,03,07,02,1.00
2011,03,03,07,03,0.60
2011,03,03,07,04,1.50
2011,03,03,07,05,0.20
2011,03,03,07,06,0.20
2011,03,03,07,07,0.30
2011,03,03,07,08,0.50
2011,03,03,07,09,0.40
2011,03,03,07,10,0.10
2011,03,03,07,11,1.50
2011,03,03,07,12,1.70
2011,03,03,07,13,0.20
2011,03,03,07,14,0.60
2011,03,03,07,15,1.00
2011,03,03,07,16,1.30
2011,03,03,07,17,0.70
2011,03,03,07,18,1.20
2011,03,03,07,19,1.10
2011,03,03,07,20,1.50
2011,03,03,07,21,2.50
2011,03,03,07,22,2.00
2011,03,03,07,23,1.60
2011,03,03,07,24,1.00
2011,03,03,07,25,2.00
2011,03,03,07,26,1.60
2011,03,03,07,27,1.90
2011,03,03,07,28,0.30
2011,03,03,07,29,1.80
2011,03,03,07,30,2.30
2011,03,03,07,31,0.10
2011,03,03,07,32,0.10
2011,03,03,07,33,0.20
2011,03,03,07,34,0.00
2011,03,03,07,35,4.10
2011,03,03,07,36,4.30
2011,03,03,07,37,4.40
2011,03,03,07,38,4.10
2011,03,03,07,39,2.80
2011,03,03,07,40,1.10
2011,03,03,07,41,0.30
2011,03,03,07,42,0.10
2011,03,03,07,43,0.00
2011,03,03,07,44,0.20
2011,03,03,07,45,0.10
2011,03,03,07,46,1.40
2011,03,03,07,47,0.10
2011,03,03,07,48,1.00
2011,03,03,07,49,2.80
2011,03,03,07,50,1.50
2011,03,03,07,51,1.70
2011,03,03,07,52,1.30
2011,03,03,07,53,0.80
2011,03,03,07,54,0.90
2011,03,03,07,55,1.90
2011,03,03,07,56,3.20
2011,03,03,07,57,2.60
2011,03,03,07,58,2.10
2011,03,03,07,59,0.30
2011,03,03,08,00,0.20
2011,03,03,08,01,0.20
2011,03,03,08,02,2.20
2011,03,03,08,03,0.90
2011,03,03,08,04,2.30
2011,03,03,08,05,2.70
2011,03,03,08,06,2.50
2011,03,03,08,07,0.60
2011,03,03,08,08,0.40
2011,03,03,08,09,1.20
2011,03,03,08,10,1.70
2011,03,03,08,11,0.30
2011,03,03,08,12,0.70
2011,03,03,08,13,0.10
2011,03,03,08,14,0.50
2011,03,03,08,15,0.80
2011,03,03,08,16,0.20
2011,03,03,08,17,0.00
2011,03,03,08,18,0.60
2011,03,03,08,19,0.40
2011,03,03,08,20,0.50
2011,03,03,08,21,0.80
2011,03,03,08,22,1.10
2011,03,03,08,23,0.00
2011,03,03,08,24,0.60
2011,03,03,08,25,0.10
2011,03,03,08,26,0.30
2011,03,03,08,27,0.30
2011,03,03,08,28,0.10
2011,03,03,08,29,1.60
2011,03,03,08,30,0.60
2011,03,03,08,31,2.70
2011,03,03,08,32,4.30
2011,03,03,08,33,5.60
2011,03,03,08,34,4.60
2011,03,03,08,35,4.70
2011,03,03,08,36,4.30
2011,03,03,08,37,6.10
2011,03,03,08,38,3.80
2011,03,03,08,39,4.00
2011,03,03,08,40,4.80
2011,03,03,08,41,2.40
2011,03,03,08,42,0.10
2011,03,03,08,43,1.30
2011,03,03,08,44,1.40
2011,03,03,08,45,1.20
2011,03,03,08,46,3.60
2011,03,03,08,47,0.90
2011,03,03,08,48,0.10
2011,03,03,08,49,1.80
2011,03,03,08,50,1.40
2011,03,03,08,51,1.60
2011,03,03,08,52,1.60
2011,03,03,08,53,2.70
2011,03,03,08,54,3.90
2011,03,03,08,55,4.30
2011,03,03,08,56,4.70
2011,03,03,08,57,2.90
2011,03,03,08,58,3.40
2011,03,03,08,59,2.30
2011,03,03,09,00,4.70
2011,03,03,09,01,1.60
2011,03,03,09,02,3.50
2011,03,03,09,03,2.00
2011,03,03,09,04,4.50
2011,03,03,09,05,2.50
2011,03,03,09,06,5.10
2011,03,03,09,07,3.80
2011,03,03,09,08,3.50
2011,03,03,09,09,2.90
2011,03,03,09,10,3.30
2011,03,03,09,11,3.90
2011,03,03,09,12,6.20
2011,03,03,09,13,5.60
2011,03,03,09,14,2.10
2011,03,03,09,15,2.00
2011,03,03,09,16,3.00
2011,03,03,09,17,4.30
2011,03,03,09,18,3.60
2011,03,03,09,19,3.50
2011,03,03,09,20,6.80
2011,03,03,09,21,8.40
2011,03,03,09,22,5.20
2011,03,03,09,23,6.00
2011,03,03,09,24,4.30
2011,03,03,09,25,8.80
2011,03,03,09,26,6.80
2011,03,03,09,27,5.60
2011,03,03,09,28,3.60
2011,03,03,09,29,4.70
2011,03,03,09,30,3.60
2011,03,03,09,31,3.60
2011,03,03,09,32,3.30
2011,03,03,09,33,7.10
2011,03,03,09,34,6.20
2011,03,03,09,35,2.20
2011,03,03,09,36,2.70
2011,03,03,09,37,3.50
2011,03,03,09,38,2.50
2011,03,03,09,39,2.50
2011,03,03,09,40,3.70
2011,03,03,09,41,3.50
2011,03,03,09,42,3.50
2011,03,03,09,43,2.90
2011,03,03,09,44,2.80
2011,03,03,09,45,3.00
2011,03,03,09,46,5.70
2011,03,03,09,47,5.30
2011,03,03,09,48,9.20
2011,03,03,09,49,2.20
2011,03,03,09,50,8.00
2011,03,03,09,51,7.50
2011,03,03,09,52,3.90
2011,03,03,09,53,6.50
2011,03,03,09,54,7.60
2011,03,03,09,55,7.10
2011,03,03,09,56,9.20
2011,03,03,09,57,4.20
2011,03,03,09,58,4.80
2011,03,03,09,59,5.30
2011,03,03,10,00,5.00
2011,03,03,10,01,2.30
2011,03,03,10,02,2.00
2011,03,03,10,03,9.60
2011,03,03,10,04,7.90
2011,03,03,10,05,6.90
2011,03,03,10,06,6.00
2011,03,03,10,07,5.60
2011,03,03,10,08,8.10
2011,03,03,10,09,3.70
2011,03,03,10,10,5.00
2011,03,03,10,11,2.40
2011,03,03,10,12,3.00
2011,03,03,10,13,4.70
2011,03,03,10,14,1.40
2011,03,03,10,15,3.20
2011,03,03,10,16,5.10
2011,03,03,10,17,8.20
2011,03,03,10,18,6.30
2011,03,03,10,19,4.60
2011,03,03,10,20,9.00
2011,03,03,10,21,3.10
2011,03,03,10,22,2.90
2011,03,03,10,23,2.70
2011,03,03,10,24,7.10
2011,03,03,10,25,10.90
2011,03,03,10,26,10.90
2011,03,03,10,27,7.50
2011,03,03,10,28,5.10
2011,03,03,10,29,7.70
2011,03,03,10,30,7.60
2011,03,03,10,31,7.90
2011,03,03,10,32,8.50
2011,03,03,10,33,4.30
2011,03,03,10,34,6.10
2011,03,03,10,35,12.40
2011,03,03,10,36,10.60
2011,03,03,10,37,4.50
2011,03,03,10,38,7.40
2011,03,03,10,39,6.50
2011,03,03,10,40,4.70
2011,03,03,10,41,3.30
2011,03,03,10,42,3.70
2011,03,03,10,43,3.60
2011,03,03,10,44,3.70
2011,03,03,10,45,2.60
2011,03,03,10,46,2.70
2011,03,03,10,47,2.30
2011,03,03,10,48,5.30
2011,03,03,10,49,3.60
2011,03,03,10,50,1.40
2011,03,03,10,51,1.50
2011,03,03,10,52,1.80
2011,03,03,10,53,1.90
2011,03,03,10,54,5.00
2011,03,03,10,55,5.60
2011,03,03,10,56,7.50
2011,03,03,10,57,4.80
2011,03,03,10,58,9.00
2011,03,03,10,59,11.40
2011,03,03,11,00,8.10
2011,03,03,11,01,10.50
2011,03,03,11,02,7.70
2011,03,03,11,03,8.20
2011,03,03,11,04,6.40
2011,03,03,11,05,7.20
2011,03,03,11,06,7.20
2011,03,03,11,07,1.70
2011,03,03,11,08,2.20
2011,03,03,11,09,4.60
2011,03,03,11,10,2.70
2011,03,03,11,11,4.40
2011,03,03,11,12,6.60
2011,03,03,11,13,5.80
2011,03,03,11,14,8.90
2011,03,03,11,15,3.40
2011,03,03,11,16,3.90
2011,03,03,11,17,9.10
2011,03,03,11,18,8.40
2011,03,03,11,19,7.30
2011,03,03,11,20,4.20
2011,03,03,11,21,4.80
2011,03,03,11,22,4.10
2011,03,03,11,23,8.00
2011,03,03,11,24,5.90
2011,03,03,11,25,5.10
2011,03,03,11,26,5.60
2011,03,03,11,27,5.10
2011,03,03,11,28,2.50
2011,03,03,11,29,1.40
2011,03,03,11,30,3.30
2011,03,03,11,31,5.10
2011,03,03,11,32,5.60
2011,03,03,11,33,7.20
2011,03,03,11,34,3.60
2011,03,03,11,35,3.10
2011,03,03,11,36,7.90
2011,03,03,11,37,8.50
2011,03,03,11,38,8.10
2011,03,03,11,39,7.50
2011,03,03,11,40,5.30
2011,03,03,11,41,6.80
2011,03,03,11,42,3.20
2011,03,03,11,43,3.60
2011,03,03,11,44,3.80
2011,03,03,11,45,4.50
2011,03,03,11,46,7.60
2011,03,03,11,47,13.30
2011,03,03,11,48,14.60
2011,03,03,11,49,15.00
2011,03,03,11,50,11.70
2011,03,03,11,51,11.30
2011,03,03,11,52,11.40
2011,03,03,11,53,7.80
2011,03,03,11,54,10.70
2011,03,03,11,55,8.60
2011,03,03,11,56,12.80
2011,03,03,11,57,8.60
2011,03,03,11,58,8.10
2011,03,03,11,59,9.70
2011,03,03,12,00,12.20
2011,03,03,12,01,9.70
2011,03,03,12,02,9.50
2011,03,03,12,03,12.20
2011,03,03,12,04,5.40
2011,03,03,12,05,4.70
2011,03,03,12,06,11.10
2011,03,03,12,07,10.00
2011,03,03,12,08,10.60
2011,03,03,12,09,11.70
2011,03,03,12,10,7.30
2011,03,03,12,11,9.40
2011,03,03,12,12,12.50
2011,03,03,12,13,16.30
2011,03,03,12,14,14.30
2011,03,03,12,15,9.30
2011,03,03,12,16,11.00
2011,03,03,12,17,9.30
2011,03,03,12,18,8.60
2011,03,03,12,19,10.60
2011,03,03,12,20,12.30
2011,03,03,12,21,14.70
2011,03,03,12,22,10.70
2011,03,03,12,23,6.80
2011,03,03,12,24,7.60
2011,03,03,12,25,8.60
2011,03,03,12,26,5.70
2011,03,03,12,27,5.50
2011,03,03,12,28,8.00
2011,03,03,12,29,8.00
2011,03,03,12,30,6.30
2011,03,03,12,31,8.20
2011,03,03,12,32,8.00
2011,03,03,12,33,9.40
2011,03,03,12,34,10.00
2011,03,03,12,35,10.10
2011,03,03,12,36,11.40
2011,03,03,12,37,8.80
2011,03,03,12,38,8.70
2011,03,03,12,39,9.40
2011,03,03,12,40,8.90
2011,03,03,12,41,9.30
2011,03,03,12,42,5.70
2011,03,03,12,43,9.50
2011,03,03,12,44,7.90
2011,03,03,12,45,7.70
2011,03,03,12,46,9.50
2011,03,03,12,47,11.00
2011,03,03,12,48,11.90
2011,03,03,12,49,8.70
2011,03,03,12,50,7.80
2011,03,03,12,51,6.80
2011,03,03,12,52,7.50
2011,03,03,12,53,8.60
2011,03,03,12,54,5.80
2011,03,03,12,55,4.30
2011,03,03,12,56,8.70
2011,03,03,12,57,9.70
2011,03,03,12,58,7.20
2011,03,03,12,59,9.90
2011,03,03,13,00,13.80
2011,03,03,13,01,11.00
2011,03,03,13,02,9.40
2011,03,03,13,03,8.20
2011,03,03,13,04,13.00
2011,03,03,13,05,10.50
2011,03,03,13,06,10.30
2011,03,03,13,07,13.00
2011,03,03,13,08,7.80
2011,03,03,13,09,5.90
2011,03,03,13,10,5.60
2011,03,03,13,11,8.60
2011,03,03,13,12,9.70
2011,03,03,13,13,10.80
2011,03,03,13,14,7.00
2011,03,03,13,15,8.30
2011,03,03,13,16,6.80
2011,03,03,13,17,4.80
2011,03,03,13,18,9.30
2011,03,03,13,19,9.30
2011,03,03,13,20,8.90
2011,03,03,13,21,6.30
2011,03,03,13,22,4.20
2011,03,03,13,23,5.10
2011,03,03,13,24,3.30
2011,03,03,13,25,7.30
2011,03,03,13,26,8.60
2011,03,03,13,27,8.60
2011,03,03,13,28,8.90
2011,03,03,13,29,5.60
2011,03,03,13,30,8.10
2011,03,03,13,31,7.70
2011,03,03,13,32,6.60
2011,03,03,13,33,6.60
2011,03,03,13,34,7.40
2011,03,03,13,35,6.50
2011,03,03,13,36,9.50
2011,03,03,13,37,6.20
2011,03,03,13,38,8.70
2011,03,03,13,39,8.00
2011,03,03,13,40,8.10
2011,03,03,13,41,6.00
2011,03,03,13,42,10.00
2011,03,03,13,43,8.90
2011,03,03,13,44,11.40
2011,03,03,13,45,11.00
2011,03,03,13,46,14.80
2011,03,03,13,47,8.40
2011,03,03,13,48,9.50
2011,03,03,13,49,12.50
2011,03,03,13,50,7.70
2011,03,03,13,51,5.90
2011,03,03,13,52,3.70
2011,03,03,13,53,4.40
2011,03,03,13,54,8.40
2011,03,03,13,55,8.90
2011,03,03,13,56,3.80
2011,03,03,13,57,8.60
2011,03,03,13,58,12.00
2011,03,03,13,59,12.80
2011,03,03,14,00,13.90
2011,03,03,14,01,9.20
2011,03,03,14,02,13.00
2011,03,03,14,03,12.20
2011,03,03,14,04,13.50
2011,03,03,14,05,8.40
2011,03,03,14,06,11.00
2011,03,03,14,07,8.00
2011,03,03,14,08,7.40
2011,03,03,14,09,6.40
2011,03,03,14,10,6.80
2011,03,03,14,11,7.70
2011,03,03,14,12,10.20
2011,03,03,14,13,11.40
2011,03,03,14,14,7.90
2011,03,03,14,15,7.00
2011,03,03,14,16,5.30
2011,03,03,14,17,6.50
2011,03,03,14,18,6.00
2011,03,03,14,19,6.40
2011,03,03,14,20,7.30
2011,03,03,14,21,5.50
2011,03,03,14,22,9.80
2011,03,03,14,23,5.30
2011,03,03,14,24,6.80
2011,03,03,14,25,4.80
2011,03,03,14,26,6.60
2011,03,03,14,27,8.60
2011,03,03,14,28,5.80
2011,03,03,14,29,5.50
2011,03,03,14,30,9.70
2011,03,03,14,31,8.20
2011,03,03,14,32,3.50
2011,03,03,14,33,5.00
2011,03,03,14,34,5.70
2011,03,03,14,35,4.50
2011,03,03,14,36,7.10
2011,03,03,14,37,7.60
2011,03,03,14,38,7.70
2011,03,03,14,39,5.90
2011,03,03,14,40,6.20
2011,03,03,14,41,7.40
2011,03,03,14,42,7.10
2011,03,03,14,43,5.30
2011,03,03,14,44,5.50
2011,03,03,14,45,6.70
2011,03,03,14,46,5.50
2011,03,03,14,47,7.40
2011,03,03,14,48,6.40
2011,03,03,14,49,6.80
2011,03,03,14,50,7.60
2011,03,03,14,51,5.70
2011,03,03,14,52,5.00
2011,03,03,14,53,4.60
2011,03,03,14,54,4.30
2011,03,03,14,55,5.00
2011,03,03,14,56,5.60
2011,03,03,14,57,7.70
2011,03,03,14,58,9.90
2011,03,03,14,59,5.60
2011,03,03,15,00,4.30
2011,03,03,15,01,4.00
2011,03,03,15,02,5.30
2011,03,03,15,03,3.90
2011,03,03,15,04,5.60
2011,03,03,15,05,3.40
2011,03,03,15,06,3.40
2011,03,03,15,07,4.60
2011,03,03,15,08,5.60
2011,03,03,15,09,3.70
2011,03,03,15,10,5.00
2011,03,03,15,11,4.30
2011,03,03,15,12,4.00
2011,03,03,15,13,3.20
2011,03,03,15,14,4.40
2011,03,03,15,15,4.70
2011,03,03,15,16,3.10
2011,03,03,15,17,2.30
2011,03,03,15,18,1.70
2011,03,03,15,19,2.80
2011,03,03,15,20,0.30
2011,03,03,15,21,3.30
2011,03,03,15,22,3.20
2011,03,03,15,23,5.30
2011,03,03,15,24,5.20
2011,03,03,15,25,5.70
2011,03,03,15,26,3.60
2011,03,03,15,27,0.80
2011,03,03,15,28,4.30
2011,03,03,15,29,3.60
2011,03,03,15,30,2.30
2011,03,03,15,31,8.50
2011,03,03,15,32,5.10
2011,03,03,15,33,4.80
2011,03,03,15,34,7.60
2011,03,03,15,35,12.60
2011,03,03,15,36,13.40
2011,03,03,15,37,16.90
2011,03,03,15,38,18.10
2011,03,03,15,39,15.80
2011,03,03,15,40,9.90
2011,03,03,15,41,9.60
2011,03,03,15,42,15.40
2011,03,03,15,43,11.80
2011,03,03,15,44,9.70
2011,03,03,15,45,10.60
2011,03,03,15,46,14.10
2011,03,03,15,47,14.20
2011,03,03,15,48,12.50
2011,03,03,15,49,8.20
2011,03,03,15,50,12.60
2011,03,03,15,51,15.30
2011,03,03,15,52,7.00
2011,03,03,15,53,6.00
2011,03,03,15,54,5.30
2011,03,03,15,55,4.70
2011,03,03,15,56,6.50
2011,03,03,15,57,6.20
2011,03,03,15,58,9.00
2011,03,03,15,59,7.10
2011,03,03,16,00,8.20
2011,03,03,16,01,14.40
2011,03,03,16,02,13.60
2011,03,03,16,03,13.70
2011,03,03,16,04,12.90
2011,03,03,16,05,8.60
2011,03,03,16,06,8.80
2011,03,03,16,07,5.10
2011,03,03,16,08,4.20
2011,03,03,16,09,7.70
2011,03,03,16,10,6.80
2011,03,03,16,11,11.30
2011,03,03,16,12,8.00
2011,03,03,16,13,8.60
2011,03,03,16,14,4.10
2011,03,03,16,15,3.40
2011,03,03,16,16,6.00
2011,03,03,16,17,4.90
2011,03,03,16,18,4.90
2011,03,03,16,19,4.90
2011,03,03,16,20,6.40
2011,03,03,16,21,4.50
2011,03,03,16,22,2.30
2011,03,03,16,23,1.50
2011,03,03,16,24,2.60
2011,03,03,16,25,1.60
2011,03,03,16,26,2.70
2011,03,03,16,27,2.30
2011,03,03,16,28,3.50
2011,03,03,16,29,6.60
2011,03,03,16,30,6.10
2011,03,03,16,31,4.70
2011,03,03,16,32,6.00
2011,03,03,16,33,7.10
2011,03,03,16,34,4.30
2011,03,03,16,35,7.20
2011,03,03,16,36,8.60
2011,03,03,16,37,8.80
2011,03,03,16,38,9.60
2011,03,03,16,39,13.60
2011,03,03,16,40,16.80
2011,03,03,16,41,13.10
2011,03,03,16,42,11.80
2011,03,03,16,43,14.20
2011,03,03,16,44,8.60
2011,03,03,16,45,10.10
2011,03,03,16,46,9.40
2011,03,03,16,47,6.70
2011,03,03,16,48,5.70
2011,03,03,16,49,6.90
2011,03,03,16,50,8.20
2011,03,03,16,51,4.60
2011,03,03,16,52,7.20
2011,03,03,16,53,8.10
2011,03,03,16,54,8.90
2011,03,03,16,55,5.90
2011,03,03,16,56,5.10
2011,03,03,16,57,7.10
2011,03,03,16,58,4.80
2011,03,03,16,59,4.70
2011,03,03,17,00,4.70
2011,03,03,17,01,5.60
2011,03,03,17,02,6.90
2011,03,03,17,03,7.90
2011,03,03,17,04,7.30
2011,03,03,17,05,8.50
2011,03,03,17,06,7.10
2011,03,03,17,07,7.40
2011,03,03,17,08,6.80
2011,03,03,17,09,7.20
2011,03,03,17,10,8.80
2011,03,03,17,11,7.10
2011,03,03,17,12,5.60
2011,03,03,17,13,5.70
2011,03,03,17,14,4.20
2011,03,03,17,15,7.60
2011,03,03,17,16,5.90
2011,03,03,17,17,5.60
2011,03,03,17,18,6.40
2011,03,03,17,19,4.10
2011,03,03,17,20,3.10
2011,03,03,17,21,8.10
2011,03,03,17,22,7.60
2011,03,03,17,23,7.30
2011,03,03,17,24,9.50
2011,03,03,17,25,9.00
2011,03,03,17,26,11.30
2011,03,03,17,27,6.30
2011,03,03,17,28,13.10
2011,03,03,17,29,11.50
2011,03,03,17,30,15.50
2011,03,03,17,31,7.60
2011,03,03,17,32,8.50
2011,03,03,17,33,9.30
2011,03,03,17,34,15.40
2011,03,03,17,35,11.20
2011,03,03,17,36,11.50
2011,03,03,17,37,12.90
2011,03,03,17,38,8.40
2011,03,03,17,39,10.50
2011,03,03,17,40,19.00
2011,03,03,17,41,9.80
2011,03,03,17,42,7.60
2011,03,03,17,43,7.40
2011,03,03,17,44,8.20
2011,03,03,17,45,6.90
2011,03,03,17,46,12.90
2011,03,03,17,47,9.20
2011,03,03,17,48,7.90
2011,03,03,17,49,8.60
2011,03,03,17,50,13.40
2011,03,03,17,51,11.80
2011,03,03,17,52,6.90
2011,03,03,17,53,8.60
2011,03,03,17,54,6.10
2011,03,03,17,55,10.10
2011,03,03,17,56,9.50
2011,03,03,17,57,13.40
2011,03,03,17,58,12.50
2011,03,03,17,59,14.10
2011,03,03,18,00,18.10
2011,03,03,18,01,12.90
2011,03,03,18,02,14.80